Regional Weather Roundup
Issued by NWS

Home | Current Version | Previous Version | Text Only | Print | Product List | Glossary Off
Versions: 1 2 3 4 5 6 7 8 9 10 11 12 13 14 15 16 17 18 19 20 21 22 23 24 25 26 27 28 29 30 31 32 33 34 35 36 37 38 39 40 41 42 43 44 45 46 47 48 49 50

000
ASUS46 KLOX 232013
RWRCA

SOUTHERN CALIFORNIA WEATHER ROUNDUP
NATIONAL WEATHER SERVICE OXNARD CALIFORNIA
100 PM PDT MON OCT 23 2017

NOTE: "FAIR" INDICATES FEW OR NO CLOUDS BELOW 12,000 FEET WITH NO
SIGNIFICANT WEATHER AND/OR OBSTRUCTIONS TO VISIBILITY.

  -  STATIONS PRECEEDED BY AN ASTERISK (*) ARE NOT NWS OR FAA
     STATIONS AND ARE NOT SUBJECT TO NWS AND FAA QUALITY CONTROL.

CAZ041-042-087-232100-
LA AND ORANGE COUNTY COASTAL AREAS


CITY           SKY/WX    TMP DP  RH WIND       PRES   REMARKS
L.A. DOWNTOWN  SUNNY    101  28   7 CALM      30.03F HX  94
L.A. AIRPORT   SUNNY     99  50  19 W8        30.04F HX  96
LONG BEACH     SUNNY     97  48  18 S6        30.03F HX  93

CITY           SKY/WX    TMP DP  RH WIND       PRES   REMARKS
AVALON           N/A     88 N/A N/A NE2         N/A
FULLERTON      SUNNY    106  19   4 E9        30.01F HX  97
*GETTY CENTER    N/A    100  34  10 S7          N/A  HX  94
HAWTHORNE      SUNNY    100  28   8 CALM      30.04F HX  93
*LEO CARRILLO    N/A     93  31  11 SW5         N/A
*LOS ALAMITOS  SUNNY     91  55  30 S7        30.02F
*REDONDO BEACH   N/A     97  34  11 CALM      30.02F HX  91
SANTA ANA      SUNNY     93  46  19 SW9       30.02F
STA MONICA APT SUNNY     96  30   9 SW5       30.05F HX  90
TORRANCE       SUNNY     99  32   9 VRB3      30.04F HX  93
*UCLA            N/A     97  34  11 S5        30.02F HX  91

$$

CAZ547-548-048-232100-
LA COUNTY VALLEYS AND INLAND EMPIRE


CITY           SKY/WX    TMP DP  RH WIND       PRES   REMARKS
BURBANK        SUNNY     98  27   8 SE7       30.07F HX  92
VAN NUYS       SUNNY    102  16   4 N13       30.06F HX  94

CITY           SKY/WX    TMP DP  RH WIND       PRES   REMARKS
*CHATSWORTH      N/A     96  33  11 NE14      30.02F HX  90
CHINO          SUNNY    103  21   5 E17       30.07F HX  95
*CLAREMONT       N/A     96  22   7 S6          N/A  HX  90
MARCH AFB      SUNNY     99  18   5 NE10      30.12F HX  92
ONTARIO        SUNNY    103  14   4 E17G26    30.07F HX  95
*PASADENA        N/A    100  41  13 CALM        N/A  HX  96
POMONA         SUNNY     97  27   8 NW9       30.11F HX  90
RIVERSIDE      SUNNY    100  27   7 N8G17     30.08F HX  93
SAN BERNARDINO SUNNY     99  25   7 CALM      30.11F HX  92
*SAN RAFAEL HI   N/A     99  11   4 S5          N/A  HX  91
*SAUGUS          N/A     91  19   7 N15G38      N/A
*WHITEMAN AP   NOT AVBL
*WHITTIER HILL   N/A    101  29   8 SW6         N/A  HX  94
*WOODLAND HILL   N/A    100  27   7 N8G14       N/A  HX  93

$$

CAZ054-055-232100-
LA AND SAN BERNARDINO COUNTY MOUNTAINS


CITY           SKY/WX    TMP DP  RH WIND       PRES   REMARKS
*ACTON           N/A     85  27  12 NE17        N/A
*BIG BEAR AIRP CLEAR     68  23  18 NE9G16    30.52F
*BIG PINES       N/A     72  22  15 E2          N/A
*CHILAO          N/A     80  19  10 NE21        N/A
SANDBERG       SUNNY     82  20  10 E20G32    30.39F
*WARM SPRINGS    N/A     79  22  12 E28G45      N/A

$$

CAZ028-029-059-060-099-232100-
ANTELOPE VALLEY AND SURROUNDING AREAS


CITY           SKY/WX    TMP DP  RH WIND       PRES   REMARKS
LANCASTER      SUNNY     85  20   9 E10       30.29F
PALMDALE       SUNNY     86  24  10 NE10      30.30F

CITY           SKY/WX    TMP DP  RH WIND       PRES   REMARKS
29 PALMS       SUNNY     88  19   8 N13       30.31F
BARSTOW/DAGGET SUNNY     86  25  11 CALM      30.27F
BISHOP         SUNNY     83  31  15 VRB6      30.43F
CHINA LAKE     SUNNY     87  23   9 SE7       30.29F
EDWARDS AFB    SUNNY     81  20  10 N3        30.27F
MOJAVE         SUNNY     82  23  11 E9        30.32F
NEEDLES        SUNNY     95  22   7 N26G32    30.15F
VICTORVILLE    SUNNY     84  23  10 NE8       30.32F

$$

CAZ039-040-232100-
VENTURA AND SANTA BARBARA COUNTY COAST


CITY           SKY/WX    TMP DP  RH WIND       PRES   REMARKS
CAMARILLO      SUNNY    103  25   6 NE26G33   30.03F HX  95
NWS OXNARD       N/A    100  29   8 CALM      30.03F HX  94
OXNARD AIRPORT   N/A    102  27   7 E20G25    30.03F HX  95
*POINT MUGU    SUNNY    103  34   9 NE13G22   30.04F HX  96
SBA APT/GOLETA SUNNY     92  31  11 W9        30.05F
*SANTA BARBARA   N/A     98  30   9 CALM      30.12F HX  92

$$

CAZ044-045-232100-
VENTURA COUNTY VALLEYS


CITY           SKY/WX    TMP DP  RH WIND       PRES   REMARKS
*SIMI VALLEY     N/A     95  30  10 NE12      29.99F HX  90
*WESTLAKE VILL   N/A     98  41  14 NE2       30.04F HX  93
*OJAI            N/A    104  40  11 E8        29.97F HX  99
*FILLMORE        N/A    102  30   8 NE12      30.08F HX  96

$$

CAZ053-232100-
VENTURA COUNTY MOUNTAINS


CITY           SKY/WX    TMP DP  RH WIND       PRES   REMARKS
*LOCKWOOD VLY    N/A     77  25  14 MISG        N/A
*FRAZIER MTN     N/A     61  18  19 E17       30.10F
*ROSE VALLEY     N/A     88  27  11 MISG        N/A

$$

CAZ034-035-036-232100-
CENTRAL COAST AND SANTA YNEZ VALLEY


CITY           SKY/WX    TMP DP  RH WIND       PRES   REMARKS
SAN LUIS OBISP SUNNY     99  57  24 NE8       30.08F HX  98
SANTA MARIA    SUNNY     94  36  13 VRB3      30.09F

CITY           SKY/WX    TMP DP  RH WIND       PRES   REMARKS
*CAL POLY SLO    N/A     88  50  27 N14G35      N/A
*LOMPOC        SUNNY     97  38  13 VRB5      30.06F HX  92
*PISMO BEACH     N/A     81  53  37 W3        30.05F
*SANTA YNEZ    FAIR      95  28   9 W3        30.09F

$$

CAZ037-038-051-232100-
SAN LUIS OBISPO COUNTY INTERIOR AND CUYAMA VALLEY


CITY           SKY/WX    TMP DP  RH WIND       PRES   REMARKS
*CUYAMA          N/A     81  44  26 CALM      30.17F
PASO ROBLES    SUNNY     79  46  31 NE5       30.19F

$$

CAZ032-033-061-232100-
SOUTHERN DESERTS


CITY           SKY/WX    TMP DP  RH WIND       PRES   REMARKS
BLYTHE         SUNNY     95  24   8 N15       30.10F
IMPERIAL       SUNNY     97  28   8 N7        30.06F HX  91
PALM SPRINGS   SUNNY    102  22   6 NE12      30.12F HX  94
THERMAL        SUNNY    102  19   5 W8        30.04F HX  94

$$

ELSEWHERE ACROSS THE WESTERN UNITED STATES AND MEXICO


CITY           SKY/WX    TMP DP  RH WIND       PRES   REMARKS
DEATH VALLEY,    N/A     91  29  11 CALM        N/A
DENVER, CO     PTSUNNY   52  23  32 NE10G20   30.42S
GRAND CANYON,  SUNNY     73  20  13 NE12      30.51F
HONOLULU, HI   PTSUNNY   77  73  88 S9        29.92
KAHULUI, MAUI  SUNNY     88  68  51 N6        29.92F HX  91
LAKE TAHOE, CA SUNNY     63  36  36 VRB5      30.60F
LAS VEGAS, NV  SUNNY     88  32  13 NE13      30.29F
MAMMOTH LAKES, FAIR      71  29  21 CALM      30.63F
MEXICO CITY, M PTSUNNY   70  45  40 N12       30.36F
PHOENIX, AZ    SUNNY     90  26  10 NW5       30.07F
PORTLAND, OR   MOSUNNY   56  50  80 CALM      30.62S
RENO, NV       SUNNY     67  38  34 CALM      30.57F
SALT LAKE CITY MOSUNNY   64  37  36 NW6       30.59S
SAN DIEGO, CA  MOSUNNY   90  34  13 NW7       30.03F
SAN FRANCISCO, SUNNY     78  49  35 E3        30.21F
SAN JOSE, CA   MOSUNNY   85  50  29 W12       30.19F
SEATTLE, WA    PTSUNNY   63  44  50 E5        30.64R
TIJUANA, MEX   NOT AVBL

$$

STATION/POSITION TIME  TEMP    WIND        PRES    VSBY  WAVE
                       AIR SEA DIR/SP/G                  HT/PER
                 (UTC) (F)     (DEG/KT/KT) (MB)    (MI)  (FT/S)
POINT ARGUELLO B NOT AVBL
WEST SANTA BARBA 2000   63 58  320/  6/  8 1018.0
POINT CONCEPTION NOT AVBL
EAST SANTA BARBA 2000   72 63  300/  2/  6 1018.5
SANTA MONICA BAY 2000      68  270/  4/  6 1017.0



USA.gov is the U.S. government's official web portal to all federal, state and local government web resources and services.